Weather History for Missoula, MT

Change the Weather History Date:

Tuesday, March 12, 2013

  Actual Average Record
Temperature  
Mean Temperature 38 °F 38 °F  
Max Temperature 46 °F 49 °F 69 °F (1900)
Min Temperature 29 °F 27 °F -3 °F (1956)
Degree Days  
Heating Degree Days 27 27  
Month to date heating degree days 342 350  
Since 1 July heating degree days 5333 5719  
Cooling Degree Days 0 0  
Month to date cooling degree days 0 0  
Year to date cooling degree days 0 0  
Moisture  
Dew Point 30 °F    
Average Humidity 78    
Maximum Humidity 92    
Minimum Humidity 63    
Precipitation  
Precipitation 0.03 in 0.03 in 0.60 in (1905)
Month to date precipitation 0.25 0.35  
Year to date precipitation 1.71 1.90  
Snow  
Snow 0.00 in - - ()
Month to date snowfall 1.8  
Year to date snowfall 17.4  
Since 1 July snowfall 38.5  
Snow Depth 0.00 in    
Sea Level Pressure  
Sea Level Pressure 30.21 in    
Wind  
Wind Speed 2 mph (NNW)    
Max Wind Speed 9 mph    
Max Gust Speed 12 mph    
Visibility 7 miles    
Events Snow    
T = Trace of Precipitation, MM = Missing Value Source: NWS Daily Summary

Daily Weather History Graph

Daily Weather History Graph

Search for Another Location

Airport:

Trip Planner

Search our weather history database for the weather conditions in past years. The results will help you decide how hot, cold, wet, or windy it might be!

Date:

Astronomy

Mar. 12, 2013 Rise Set
Actual Time 7:54 AM MDT 7:38 PM MDT
Civil Twilight 7:24 AM MDT 8:08 PM MDT
Nautical Twilight 6:48 AM MDT 8:43 PM MDT
Astronomical Twilight 6:13 AM MDT 9:19 PM MDT
Moon 7:57 AM MDT (3/12) 9:05 PM MDT (3/12)
Length of Visible Light 12h 44m
Length of Day
11h 43m
New Moon, 1% of the Moon is Illuminated
Mar 12
New Moon
Mar 19
First Quarter
Mar 27
Full
Apr 2
Last Quarter
Apr 10
New

Hourly Weather History & Observations

Time (MDT) Temp. Windchill Dew Point Humidity Pressure Visibility Wind Dir Wind Speed Gust Speed Precip Events Conditions
12:53 AM 30.0 °F - 21.0 °F 69% 30.28 in 10.0 mi Calm Calm - N/A   Clear
1:53 AM 32.0 °F - 21.0 °F 64% 30.28 in 10.0 mi Calm Calm - N/A   Mostly Cloudy
2:53 AM 30.0 °F - 21.9 °F 72% 30.28 in 10.0 mi Calm Calm - N/A   Mostly Cloudy
3:53 AM 30.9 °F - 23.0 °F 72% 30.26 in 10.0 mi Calm Calm - N/A   Overcast
4:53 AM 30.9 °F - 23.0 °F 72% 30.25 in 10.0 mi Calm Calm - N/A   Overcast
5:53 AM 30.9 °F - 24.1 °F 76% 30.24 in 10.0 mi Calm Calm - N/A   Overcast
6:53 AM 30.9 °F - 24.1 °F 76% 30.24 in 10.0 mi Calm Calm - N/A   Overcast
7:53 AM 30.9 °F - 25.0 °F 79% 30.25 in 10.0 mi Calm Calm - N/A   Overcast
8:31 AM 32.0 °F - 24.8 °F 75% 30.19 in 10.0 mi Calm Calm - N/A   Overcast
8:50 AM 32.0 °F 26.4 °F 24.8 °F 75% 30.19 in 3.0 mi NNW 5.8 mph - 0.00 in Snow Light Snow
8:53 AM 30.9 °F 26.2 °F 25.0 °F 79% 30.27 in 1.8 mi NNW 4.6 mph - 0.00 in Snow Light Snow
9:02 AM 30.2 °F 25.4 °F 26.6 °F 86% 30.19 in 1.2 mi NNW 4.6 mph - N/A Snow Light Snow
9:23 AM 30.2 °F 26.7 °F 26.6 °F 86% 30.19 in 1.5 mi NNW 3.5 mph - 0.00 in Snow Light Snow
9:35 AM 30.2 °F - 28.4 °F 93% 30.19 in 2.0 mi Calm Calm - 0.00 in Snow Light Snow
9:39 AM 30.2 °F - 28.4 °F 93% 30.19 in 1.8 mi Calm Calm - 0.00 in Snow Light Snow
9:53 AM 30.0 °F - 27.0 °F 88% 30.28 in 1.8 mi Calm Calm - 0.01 in Snow Light Snow
9:58 AM 30.2 °F - 28.4 °F 93% 30.19 in 1.2 mi Calm Calm - 0.00 in Snow Light Snow
10:17 AM 30.2 °F - 28.4 °F 93% 30.19 in 0.8 mi Calm Calm - 0.00 in Snow Light Snow
10:40 AM 30.2 °F - 28.4 °F 93% 30.18 in 0.8 mi Calm Calm - 0.01 in Snow Light Snow
10:48 AM 30.2 °F - 28.4 °F 93% 30.18 in 1.5 mi Calm Calm - 0.01 in Snow Light Snow
10:51 AM 30.2 °F - 28.4 °F 93% 30.18 in 3.0 mi Calm Calm - 0.02 in Snow Light Snow
10:53 AM 30.0 °F - 28.9 °F 96% 30.27 in 3.0 mi Calm Calm - 0.02 in Snow Light Snow
11:53 AM 33.1 °F - 30.9 °F 92% 30.25 in 10.0 mi Calm Calm - 0.00 in   Overcast
12:20 PM 35.6 °F - 32.0 °F 87% 30.16 in 10.0 mi Calm Calm - N/A   Overcast
12:53 PM 36.0 °F 33.3 °F 32.0 °F 86% 30.24 in 10.0 mi NW 3.5 mph - N/A   Mostly Cloudy
1:53 PM 39.0 °F - 33.1 °F 79% 30.20 in 10.0 mi Calm Calm - N/A   Overcast
2:53 PM 41.0 °F - 34.0 °F 76% 30.17 in 10.0 mi Calm Calm - N/A   Overcast
3:53 PM 43.0 °F 40.3 °F 35.1 °F 74% 30.15 in 10.0 mi NW 4.6 mph - N/A   Overcast
4:53 PM 45.0 °F 41.8 °F 36.0 °F 71% 30.15 in 10.0 mi NW 5.8 mph - N/A   Overcast
5:53 PM 45.0 °F 42.6 °F 37.9 °F 76% 30.15 in 10.0 mi NNW 4.6 mph - N/A   Overcast
6:53 PM 45.0 °F - 37.9 °F 76% 30.15 in 10.0 mi Calm Calm - N/A   Overcast
7:53 PM 44.1 °F - 39.0 °F 82% 30.16 in 10.0 mi Calm Calm - N/A   Overcast
8:53 PM 45.0 °F - 37.9 °F 76% 30.17 in 10.0 mi Calm Calm - N/A   Overcast
9:53 PM 45.0 °F - 37.0 °F 74% 30.19 in 10.0 mi Calm Calm - N/A   Overcast
10:53 PM 44.1 °F 41.5 °F 37.9 °F 79% 30.21 in 10.0 mi Variable 4.6 mph - N/A   Overcast
11:53 PM 44.1 °F 40.1 °F 37.9 °F 79% 30.20 in 10.0 mi North 6.9 mph - N/A   Overcast